User: anonymous   Login
Location: Unspecified
(0.0000°N, 0.0000°E)
Time: 21:20:16
(UTC+00:00)
Language:

POEM - Orbit

View from above orbital plane
View from above orbital plane
View from above satellite
View from above satellite

Ground track
Ground track

The orbit is defined by the following mean orbital elements,

1 52939U          26145.44173755 +.00000000 +00000-0 +25231-3 0 00001
2 52939   9.9517 243.5847 0024129 221.4109 138.4276 15.23773216    09
Epoch (UTC): 25 May 2026 10:36:06
Eccentricity: 0.0024129
inclination: 9.9517°
perigee height: 478 km
apogee height: 511 km
right ascension of ascending node: 243.5847°
argument of perigee: 221.4109°
revolutions per day: 15.23773216
mean anomaly at epoch: 138.4276°

The dashed part of the orbit path shows where the satellite is in the earth's shadow,  

DLR